Churchill Falls Airport

Jump to: basic info | weather | frequencies | runways | comments

Related pages: nearby airports | nearby navaids | notams | map

Basic information (top)

Codes: ZUM CZUM
Location: lon 53.561901, lat -64.106400, elev 1,442 ft / 440 m msl
Status: small_airport
Scheduled airline service: yes
Links: Wikipedia Mobile

Weather (top)

Current conditions (rec'd 2014/10/24 11:00Z):

CZUM 241100Z AUTO 00000KT 9SM CLR M06/M07 A3009 RMK SLP215

Airport forecast (rec'd 2014/10/24 08:42Z):

TAF CZUM 240741Z 2408/2420 28005KT P6SM SKC PROB30 2408/2413 2SM BR 
     FM241600 07005KT P6SM SKC 
      RMK FCST BASED ON AUTO OBS. NXT FCST BY 241400Z

Frequencies (top)

Verify before use: may be inaccurate or out of date.

ATF: 123.5 MHz (ATF)
AWOS: 122.55 MHz (AWOS)
CNTR: 126.025 MHz (GANDER CNTR)
RCO: 123.25 MHz (HALIFAX RDO)

Runways (top)

13/31: 5,500 x 150 ft (1,676 x 46 m) — paved — lighted

Latest comments (top)

churchill falls airport: no phone number [read]

More... (top)

See also NOTAMs and nearby airports and navaids, or visit the Churchill Falls Airport page at the main OurAirports website..